Weather Roundup
Issued by NWS

Home | Current Version | Previous Version | Graphics & Text | Print | Product List | Glossary Off
Versions: 1 2 3 4 5 6 7 8 9 10 11 12 13 14 15 16 17 18 19 20 21 22 23 24 25 26 27 28 29 30 31 32 33 34 35 36 37 38 39 40 41 42 43 44 45 46 47 48 49 50

000
NZUS93 KARX 311259
HRRWXR

CURRENT HOURLY OBSERVATIONS ACROSS
MUCH OF THE UPPER MISSISSIPPI VALLEY
NATIONAL WEATHER SERVICE LA CROSSE WI
800 AM CDT MON AUG 31 2015


...SOUTHEAST MINNESOTA...


CITY           SKY/WX    TMP DP  RH WIND       PRES   REMARKS
ROCHESTER      FOG       66  66 100 S12       30.01S VSB 1/2
ROCHESTER/MAYO CLOUDY    66  66 100 S9        29.99F
WINONA         CLOUDY    68  66  94 CALM      30.00S FOG
AUSTIN         NOT AVBL
ALBERT LEA     FOG       66  66 100 S7        29.98S VSB 1/4
DODGE CENTER   FOG       66  64  94 S14       29.98F VSB 3/4
PRESTON        FOG       64  63  96 S8        30.02S VSB 1/4
OWATONNA       CLOUDY    68  64  88 S13       29.97R FOG
FARIBAULT      CLOUDY    66  64  94 S6        29.96S FOG
$$

...ELSEWHERE IN MINNESOTA...


CITY           SKY/WX    TMP DP  RH WIND       PRES   REMARKS
MINNEAPOLIS    PTSUNNY   68  66  93 SE7       29.93F
INTNL FALLS    NOT AVBL
DULUTH         PTSUNNY   64  61  90 SW13      29.89S
RED WING       CLOUDY    68  66  94 S5        29.96S FOG
REDWOOD FALLS  SUNNY     66  64  93 S12       29.88S FOG
MANKATO        CLOUDY    66  63  88 S12G17    29.94S
WORTHINGTON    MOSUNNY   64  61  88 S10       29.94R
FAIRMONT       CLOUDY    66  61  82 S10       29.95S VSB 1
$$

...SOUTHWEST WISCONSIN...


CITY           SKY/WX    TMP DP  RH WIND       PRES   REMARKS
LA CROSSE      CLOUDY    66  64  93 S7        30.01S FOG
PRAIRIE DU CHI CLOUDY    60  58  95 CALM      30.04R FOG
BOSCOBEL       FOG       61  60  97 CALM      30.04S VSB<1/4
LONE ROCK      NOT AVBL
PLATTEVILLE    SUNNY     62  62 100 SE5       30.05S
FORT MC COY    CLOUDY    60  59  95 CALM      30.03S
VIROQUA          N/A     63  63 100 CALM      30.05R VSB 1/4
WIS DELLS      CLOUDY    64  62  94 CALM      30.05S FOG
$$

...ELSEWHERE IN WISCONSIN...


CITY           SKY/WX    TMP DP  RH WIND       PRES   REMARKS
MILWAUKEE      FOG       62  62 100 SW3       30.07R VSB 1/2
MADISON        PTSUNNY   63  61  93 SE3       30.06S
GREEN BAY      FOG       64  63  96 SW7       30.03R VSB 1/4
EAU CLAIRE     NOT AVBL
BLACK RVR FLS  CLOUDY    60  60 100 CALM      30.01S FOG
MEDFORD        CLOUDY    62  62 100 S5        30.02S FOG
WAUSAU         CLOUDY    62  62 100 S5        30.02R FOG
WIS RAPIDS     CLOUDY    63  61  93 SW5       30.05S FOG
MARSHFIELD     FOG       62  59  90 S5        30.03S VSB 1/4
RICE LAKE      FOG       64  63  95 S5        29.99S VSB 1/2
$$

...NORTHEAST IOWA...


CITY           SKY/WX    TMP DP  RH WIND       PRES   REMARKS
DECORAH        FOG       63  63 100 S5        30.02S VSB 1
MASON CITY     FOG       63  63 100 S8        30.01S VSB 1/4
CHARLES CITY   FOG       63  63 100 VRB6      30.02S VSB<1/4
OELWEIN          N/A    N/A N/A N/A MISG        N/A
$$

...ELSEWHERE IN IOWA...


CITY           SKY/WX    TMP DP  RH WIND       PRES   REMARKS
DES MOINES     SUNNY     69  65  86 SE9       29.98S FOG
IOWA CITY      SUNNY     66  64  93 SE3       30.04S FOG
FORT DODGE     MOSUNNY   64  63  94 SE5       29.99S
$$

...NORTHERN ILLINOIS...


CITY           SKY/WX    TMP DP  RH WIND       PRES   REMARKS
CHICAGO-OHARE  MOSUNNY   63  63 100 CALM      30.07R FOG
CHICAGO-MIDWAY MOSUNNY   68  64  87 CALM      30.07R FOG
MOLINE         SUNNY     65  62  90 CALM      30.05R FOG
ROCKFORD       SUNNY     62  60  93 CALM      30.08S FOG
PEORIA         SUNNY     72  67  84 CALM      30.06R HAZE
$$

NOTE: "FAIR" INDICATES FEW OR NO CLOUDS BELOW 12,000 FEET WITH NO
SIGNIFICANT WEATHER AND/OR OBSTRUCTIONS TO VISIBILITY. WIND
SPEEDS ARE IN MILES-PER-HOUR.



USA.gov is the U.S. government's official web portal to all federal, state and local government web resources and services.